Time,TemperatureF,DewpointF,PressureIn,WindDirection,WindDirectionDegrees,WindSpeedMPH,WindSpeedGustMPH,Humidity,HourlyPrecipIn,Conditions,Clouds,dailyrainin,SoftwareType,DateUTC
2013-04-21 00:02:00,30.9,25.2,30.44,SE,144,3.0,5.0,79,0.00,,,0.00,meteohub,2013-04-21 05:02:00,
2013-04-21 00:07:00,30.7,25.0,30.44,SE,144,5.0,8.0,79,0.00,,,0.00,meteohub,2013-04-21 05:07:00,
2013-04-21 00:12:00,30.6,25.2,30.44,SE,144,1.0,8.0,80,0.00,,,0.00,meteohub,2013-04-21 05:12:00,
2013-04-21 00:17:00,30.7,25.3,30.45,SE,144,1.0,5.0,80,0.00,,,0.00,meteohub,2013-04-21 05:17:00,
2013-04-21 00:22:00,30.7,25.3,30.45,SE,144,5.0,5.0,80,0.00,,,0.00,meteohub,2013-04-21 05:22:00,
2013-04-21 00:27:00,30.9,25.2,30.45,SE,144,2.0,6.0,79,0.00,,,0.00,meteohub,2013-04-21 05:27:00,
2013-04-21 00:32:00,30.9,25.2,30.45,SE,144,1.0,6.0,79,0.00,,,0.00,meteohub,2013-04-21 05:32:00,
2013-04-21 00:37:00,30.9,25.2,30.45,SE,144,2.0,6.0,79,0.00,,,0.00,meteohub,2013-04-21 05:37:00,
2013-04-21 00:42:00,30.9,25.2,30.45,SE,144,3.0,6.0,79,0.00,,,0.00,meteohub,2013-04-21 05:42:00,
2013-04-21 00:47:00,30.9,25.2,30.45,SE,144,2.0,7.0,79,0.00,,,0.00,meteohub,2013-04-21 05:47:00,
2013-04-21 00:52:00,30.9,25.2,30.45,SE,144,2.0,7.0,79,0.00,,,0.00,meteohub,2013-04-21 05:52:00,
2013-04-21 00:57:00,30.9,25.2,30.45,SE,144,2.0,6.0,79,0.00,,,0.00,meteohub,2013-04-21 05:57:00,
2013-04-21 01:02:00,30.7,25.3,30.45,SE,144,3.0,6.0,80,0.00,,,0.00,meteohub,2013-04-21 06:02:00,
2013-04-21 01:07:00,30.6,25.2,30.45,SE,144,1.0,5.0,80,0.00,,,0.00,meteohub,2013-04-21 06:07:00,
2013-04-21 01:12:00,30.6,25.2,30.45,SE,144,0.0,5.0,80,0.00,,,0.00,meteohub,2013-04-21 06:12:00,
2013-04-21 01:17:00,30.4,25.3,30.46,SE,144,3.0,5.0,81,0.00,,,0.00,meteohub,2013-04-21 06:17:00,
2013-04-21 01:22:00,30.4,25.3,30.45,SE,144,2.0,4.0,81,0.00,,,0.00,meteohub,2013-04-21 06:22:00,
2013-04-21 01:27:00,30.4,25.3,30.46,SE,144,2.0,3.0,81,0.00,,,0.00,meteohub,2013-04-21 06:27:00,
2013-04-21 01:32:00,30.4,25.3,30.46,SE,144,3.0,5.0,81,0.00,,,0.00,meteohub,2013-04-21 06:32:00,
2013-04-21 01:37:00,30.0,25.0,30.46,SE,144,2.0,5.0,81,0.00,,,0.00,meteohub,2013-04-21 06:37:00,
2013-04-21 01:42:00,30.0,25.2,30.46,SE,144,2.0,4.0,82,0.00,,,0.00,meteohub,2013-04-21 06:42:00,
2013-04-21 01:47:00,30.2,25.2,30.46,SE,144,3.0,6.0,81,0.00,,,0.00,meteohub,2013-04-21 06:47:00,
2013-04-21 01:52:00,30.2,25.2,30.46,SE,144,2.0,6.0,81,0.00,,,0.00,meteohub,2013-04-21 06:52:00,
2013-04-21 01:57:00,30.2,25.3,30.46,SE,144,3.0,6.0,82,0.00,,,0.00,meteohub,2013-04-21 06:57:00,
2013-04-21 02:02:00,30.2,25.3,30.46,SE,144,1.0,5.0,82,0.00,,,0.00,meteohub,2013-04-21 07:02:00,
2013-04-21 02:07:00,30.0,25.2,30.46,SE,144,3.0,5.0,82,0.00,,,0.00,meteohub,2013-04-21 07:07:00,
2013-04-21 02:12:00,30.2,25.3,30.46,SE,144,2.0,5.0,82,0.00,,,0.00,meteohub,2013-04-21 07:12:00,
2013-04-21 02:17:00,30.4,25.5,30.46,SE,144,2.0,5.0,82,0.00,,,0.00,meteohub,2013-04-21 07:17:00,
2013-04-21 02:22:00,30.4,25.9,30.47,SE,144,1.0,6.0,83,0.00,,,0.00,meteohub,2013-04-21 07:22:00,
2013-04-21 02:27:00,30.4,25.5,30.47,SE,144,3.0,6.0,82,0.00,,,0.00,meteohub,2013-04-21 07:27:00,
2013-04-21 02:32:00,30.4,25.9,30.47,SE,144,3.0,6.0,83,0.00,,,0.00,meteohub,2013-04-21 07:32:00,
2013-04-21 02:37:00,30.6,26.1,30.47,SE,144,1.0,6.0,83,0.00,,,0.00,meteohub,2013-04-21 07:37:00,
2013-04-21 02:42:00,30.6,26.1,30.47,SE,144,2.0,6.0,83,0.00,,,0.00,meteohub,2013-04-21 07:42:00,
2013-04-21 02:47:00,30.6,26.1,30.47,SE,144,0.0,6.0,83,0.00,,,0.00,meteohub,2013-04-21 07:47:00,
2013-04-21 02:52:00,30.6,26.1,30.47,SE,144,3.0,7.0,83,0.00,,,0.00,meteohub,2013-04-21 07:52:00,
2013-04-21 02:57:00,30.7,25.9,30.47,SE,144,5.0,7.0,82,0.00,,,0.00,meteohub,2013-04-21 07:57:00,
2013-04-21 03:02:00,30.9,26.1,30.47,SE,144,6.0,7.0,82,0.00,,,0.00,meteohub,2013-04-21 08:02:00,
2013-04-21 03:07:00,30.9,26.1,30.47,SE,144,3.0,9.0,82,0.00,,,0.00,meteohub,2013-04-21 08:07:00,
2013-04-21 03:12:00,30.9,26.1,30.47,SE,144,3.0,9.0,82,0.00,,,0.00,meteohub,2013-04-21 08:12:00,
2013-04-21 03:17:00,30.9,26.1,30.47,SE,144,4.0,9.0,82,0.00,,,0.00,meteohub,2013-04-21 08:17:00,
2013-04-21 03:22:00,30.9,26.1,30.47,SE,144,2.0,8.0,82,0.00,,,0.00,meteohub,2013-04-21 08:22:00,
2013-04-21 03:27:00,30.9,26.4,30.48,SE,144,3.0,7.0,83,0.00,,,0.00,meteohub,2013-04-21 08:27:00,
2013-04-21 03:32:00,31.1,26.6,30.48,SE,144,3.0,7.0,83,0.00,,,0.00,meteohub,2013-04-21 08:32:00,
2013-04-21 03:37:00,31.3,26.8,30.48,SE,144,3.0,8.0,83,0.00,,,0.00,meteohub,2013-04-21 08:37:00,
2013-04-21 03:42:00,31.3,26.4,30.48,SE,144,6.0,8.0,82,0.00,,,0.00,meteohub,2013-04-21 08:42:00,
2013-04-21 03:47:00,31.3,26.4,30.48,SSE,164,5.0,8.0,82,0.00,,,0.00,meteohub,2013-04-21 08:47:00,
2013-04-21 03:52:00,31.3,26.8,30.48,SSE,163,3.0,8.0,83,0.00,,,0.00,meteohub,2013-04-21 08:52:00,
2013-04-21 03:57:00,31.5,27.0,30.48,SSE,162,3.0,8.0,83,0.00,,,0.00,meteohub,2013-04-21 08:57:00,
2013-04-21 04:02:00,31.5,27.0,30.48,SSE,163,4.0,8.0,83,0.00,,,0.00,meteohub,2013-04-21 09:02:00,
2013-04-21 04:07:00,31.5,27.0,30.48,SSE,162,2.0,8.0,83,0.00,,,0.00,meteohub,2013-04-21 09:07:00,
2013-04-21 04:12:00,31.5,27.0,30.48,SSE,163,4.0,8.0,83,0.00,,,0.00,meteohub,2013-04-21 09:12:00,
2013-04-21 04:17:00,31.6,27.1,30.48,SSE,163,3.0,8.0,83,0.00,,,0.00,meteohub,2013-04-21 09:17:00,
2013-04-21 04:22:00,31.6,27.1,30.48,SSE,162,8.0,8.0,83,0.00,,,0.00,meteohub,2013-04-21 09:22:00,
2013-04-21 04:27:00,31.8,27.3,30.48,SSE,163,1.0,8.0,83,0.00,,,0.00,meteohub,2013-04-21 09:27:00,
2013-04-21 04:32:00,31.8,27.0,30.48,SSE,162,4.0,8.0,82,0.00,,,0.00,meteohub,2013-04-21 09:32:00,
2013-04-21 04:37:00,31.8,27.0,30.48,SSE,163,4.0,8.0,82,0.00,,,0.00,meteohub,2013-04-21 09:37:00,
2013-04-21 04:42:00,32.0,26.8,30.48,SSE,163,3.0,8.0,81,0.00,,,0.00,meteohub,2013-04-21 09:42:00,
2013-04-21 04:47:00,32.2,26.8,30.48,SSE,168,4.0,8.0,80,0.00,,,0.00,meteohub,2013-04-21 09:47:00,
2013-04-21 04:52:00,32.2,26.8,30.48,SSE,168,6.0,9.0,80,0.00,,,0.00,meteohub,2013-04-21 09:52:00,
2013-04-21 04:57:00,32.2,26.8,30.49,SSE,168,6.0,9.0,80,0.00,,,0.00,meteohub,2013-04-21 09:57:00,
2013-04-21 05:02:00,32.2,26.4,30.49,SSE,168,2.0,9.0,79,0.00,,,0.00,meteohub,2013-04-21 10:02:00,
2013-04-21 05:07:00,32.2,26.4,30.49,SSE,168,3.0,8.0,79,0.00,,,0.00,meteohub,2013-04-21 10:07:00,
2013-04-21 05:12:00,32.2,26.4,30.49,SSE,168,5.0,8.0,79,0.00,,,0.00,meteohub,2013-04-21 10:12:00,
2013-04-21 05:17:00,32.2,26.4,30.49,SSE,168,4.0,6.0,79,0.00,,,0.00,meteohub,2013-04-21 10:17:00,
2013-04-21 05:22:00,32.4,26.2,30.49,SSE,167,6.0,7.0,78,0.00,,,0.00,meteohub,2013-04-21 10:22:00,
2013-04-21 05:27:00,32.4,25.9,30.49,SSE,166,3.0,7.0,77,0.00,,,0.00,meteohub,2013-04-21 10:27:00,
2013-04-21 05:32:00,32.5,26.1,30.49,SE,144,5.0,7.0,77,0.00,,,0.00,meteohub,2013-04-21 10:32:00,
2013-04-21 05:37:00,32.5,25.9,30.50,SE,144,2.0,9.0,76,0.00,,,0.00,meteohub,2013-04-21 10:37:00,
2013-04-21 05:42:00,32.5,25.9,30.50,SSE,148,4.0,9.0,76,0.00,,,0.00,meteohub,2013-04-21 10:42:00,
2013-04-21 05:47:00,32.7,25.7,30.50,SSE,156,3.0,9.0,75,0.00,,,0.00,meteohub,2013-04-21 10:47:00,
2013-04-21 05:52:00,32.7,25.7,30.50,SSE,148,2.0,11.0,75,0.00,,,0.00,meteohub,2013-04-21 10:52:00,
2013-04-21 05:57:00,32.5,25.5,30.50,SSE,150,4.0,11.0,75,0.00,,,0.00,meteohub,2013-04-21 10:57:00,
2013-04-21 06:02:00,32.5,25.5,30.50,SE,146,2.0,11.0,75,0.00,,,0.00,meteohub,2013-04-21 11:02:00,
2013-04-21 06:07:00,32.5,25.5,30.50,SE,142,3.0,9.0,75,0.00,,,0.00,meteohub,2013-04-21 11:07:00,
2013-04-21 06:12:00,32.7,25.7,30.50,SE,136,5.0,11.0,75,0.00,,,0.00,meteohub,2013-04-21 11:12:00,
2013-04-21 06:17:00,32.7,25.7,30.50,SSE,161,3.0,11.0,75,0.00,,,0.00,meteohub,2013-04-21 11:17:00,
2013-04-21 06:22:00,32.7,25.7,30.50,SE,140,4.0,11.0,75,0.00,,,0.00,meteohub,2013-04-21 11:22:00,
2013-04-21 06:27:00,32.9,25.9,30.50,SE,146,3.0,10.0,75,0.00,,,0.00,meteohub,2013-04-21 11:27:00,
2013-04-21 06:32:00,33.1,26.1,30.50,SSE,149,2.0,10.0,75,0.00,,,0.00,meteohub,2013-04-21 11:32:00,
2013-04-21 06:37:00,33.1,25.7,30.51,SSE,153,2.0,9.0,74,0.00,,,0.00,meteohub,2013-04-21 11:37:00,
2013-04-21 06:42:00,33.3,25.5,30.51,SSE,155,5.0,8.0,73,0.00,,,0.00,meteohub,2013-04-21 11:42:00,
2013-04-21 06:47:00,33.3,25.9,30.51,SSE,150,5.0,8.0,74,0.00,,,0.00,meteohub,2013-04-21 11:47:00,
2013-04-21 06:52:00,33.3,25.9,30.52,SE,146,7.0,8.0,74,0.00,,,0.00,meteohub,2013-04-21 11:52:00,
2013-04-21 06:57:00,33.4,25.3,30.52,SSE,148,8.0,10.0,72,0.00,,,0.00,meteohub,2013-04-21 11:57:00,
2013-04-21 07:02:00,33.6,25.5,30.52,SE,143,5.0,13.0,72,0.00,,,0.00,meteohub,2013-04-21 12:02:00,
2013-04-21 07:07:00,33.8,25.7,30.53,SE,145,7.0,13.0,72,0.00,,,0.00,meteohub,2013-04-21 12:07:00,
2013-04-21 07:12:00,34.0,25.9,30.53,SE,141,5.0,13.0,72,0.00,,,0.00,meteohub,2013-04-21 12:12:00,
2013-04-21 07:17:00,34.0,25.9,30.53,SE,138,5.0,11.0,72,0.00,,,0.00,meteohub,2013-04-21 12:17:00,
2013-04-21 07:22:00,34.2,26.1,30.53,SE,140,4.0,11.0,72,0.00,,,0.00,meteohub,2013-04-21 12:22:00,
2013-04-21 07:27:00,34.2,26.4,30.53,SE,145,12.0,12.0,73,0.00,,,0.00,meteohub,2013-04-21 12:27:00,
2013-04-21 07:32:00,34.3,26.2,30.53,SE,135,9.0,12.0,72,0.00,,,0.00,meteohub,2013-04-21 12:32:00,
2013-04-21 07:37:00,34.3,25.9,30.54,SSE,150,5.0,13.0,71,0.00,,,0.00,meteohub,2013-04-21 12:37:00,
2013-04-21 07:42:00,34.3,26.2,30.54,SE,140,9.0,13.0,72,0.00,,,0.00,meteohub,2013-04-21 12:42:00,
2013-04-21 07:47:00,34.5,26.1,30.54,SE,138,7.0,13.0,71,0.00,,,0.00,meteohub,2013-04-21 12:47:00,
2013-04-21 07:52:00,34.5,26.1,30.54,SSE,157,8.0,10.0,71,0.00,,,0.00,meteohub,2013-04-21 12:52:00,
2013-04-21 07:57:00,34.7,25.5,30.54,SE,140,4.0,11.0,69,0.00,,,0.00,meteohub,2013-04-21 12:57:00,
2013-04-21 08:02:00,34.9,25.7,30.54,SSE,153,7.0,15.0,69,0.00,,,0.00,meteohub,2013-04-21 13:02:00,
2013-04-21 08:07:00,34.9,25.7,30.54,SE,140,8.0,15.0,69,0.00,,,0.00,meteohub,2013-04-21 13:07:00,
2013-04-21 08:12:00,34.9,26.1,30.54,SSE,150,5.0,15.0,70,0.00,,,0.00,meteohub,2013-04-21 13:12:00,
2013-04-21 08:17:00,34.9,25.0,30.54,SE,144,4.0,13.0,67,0.00,,,0.00,meteohub,2013-04-21 13:17:00,
2013-04-21 08:22:00,35.1,25.5,30.54,SE,135,9.0,14.0,68,0.00,,,0.00,meteohub,2013-04-21 13:22:00,
2013-04-21 08:27:00,35.1,25.2,30.54,SE,136,9.0,14.0,67,0.00,,,0.00,meteohub,2013-04-21 13:27:00,
2013-04-21 08:32:00,35.2,25.7,30.54,SE,132,9.0,13.0,68,0.00,,,0.00,meteohub,2013-04-21 13:32:00,
2013-04-21 08:37:00,35.4,25.9,30.54,SE,137,8.0,13.0,68,0.00,,,0.00,meteohub,2013-04-21 13:37:00,
2013-04-21 08:42:00,35.6,25.3,30.54,SE,130,10.0,15.0,66,0.00,,,0.00,meteohub,2013-04-21 13:42:00,
2013-04-21 08:47:00,35.8,25.5,30.54,SSE,148,9.0,15.0,66,0.00,,,0.00,meteohub,2013-04-21 13:47:00,
2013-04-21 08:52:00,35.8,25.5,30.54,SE,139,5.0,15.0,66,0.00,,,0.00,meteohub,2013-04-21 13:52:00,
2013-04-21 08:57:00,36.0,25.3,30.54,SE,138,5.0,13.0,65,0.00,,,0.00,meteohub,2013-04-21 13:57:00,
2013-04-21 09:02:00,36.1,25.5,30.54,SE,140,9.0,13.0,65,0.00,,,0.00,meteohub,2013-04-21 14:02:00,
2013-04-21 09:07:00,36.1,25.5,30.54,SE,132,8.0,13.0,65,0.00,,,0.00,meteohub,2013-04-21 14:07:00,
2013-04-21 09:12:00,36.0,25.3,30.54,SE,137,6.0,12.0,65,0.00,,,0.00,meteohub,2013-04-21 14:12:00,
2013-04-21 09:17:00,36.0,25.0,30.54,SE,128,10.0,12.0,64,0.00,,,0.00,meteohub,2013-04-21 14:17:00,
2013-04-21 09:22:00,36.0,25.3,30.54,SE,124,9.0,14.0,65,0.00,,,0.00,meteohub,2013-04-21 14:22:00,
2013-04-21 09:27:00,36.0,24.6,30.54,SE,142,6.0,14.0,63,0.00,,,0.00,meteohub,2013-04-21 14:27:00,
2013-04-21 09:32:00,36.0,25.0,30.54,SE,128,8.0,13.0,64,0.00,,,0.00,meteohub,2013-04-21 14:32:00,
2013-04-21 09:37:00,36.1,25.9,30.54,SE,134,6.0,13.0,66,0.00,,,0.00,meteohub,2013-04-21 14:37:00,
2013-04-21 09:42:00,36.3,25.7,30.53,SE,131,7.0,13.0,65,0.00,,,0.00,meteohub,2013-04-21 14:42:00,
2013-04-21 09:47:00,36.5,25.2,30.53,SE,142,13.0,13.0,63,0.00,,,0.00,meteohub,2013-04-21 14:47:00,
2013-04-21 09:52:00,36.9,25.5,30.53,ESE,117,4.0,14.0,63,0.00,,,0.00,meteohub,2013-04-21 14:52:00,
2013-04-21 09:57:00,37.0,25.7,30.53,SE,132,7.0,14.0,63,0.00,,,0.00,meteohub,2013-04-21 14:57:00,
2013-04-21 10:02:00,37.0,26.1,30.54,SE,134,7.0,14.0,64,0.00,,,0.00,meteohub,2013-04-21 15:02:00,
2013-04-21 10:07:00,37.2,26.2,30.54,SE,140,4.0,13.0,64,0.00,,,0.00,meteohub,2013-04-21 15:07:00,
2013-04-21 10:12:00,37.8,26.2,30.53,SE,140,7.0,11.0,63,0.00,,,0.00,meteohub,2013-04-21 15:12:00,
2013-04-21 10:17:00,37.9,26.4,30.53,SE,142,12.0,14.0,63,0.00,,,0.00,meteohub,2013-04-21 15:17:00,
2013-04-21 10:22:00,37.9,25.3,30.53,SE,134,9.0,16.0,60,0.00,,,0.00,meteohub,2013-04-21 15:22:00,
2013-04-21 10:27:00,38.3,26.8,30.53,SE,126,8.0,18.0,63,0.00,,,0.00,meteohub,2013-04-21 15:27:00,
2013-04-21 10:32:00,38.8,28.0,30.53,SE,135,8.0,18.0,65,0.00,,,0.00,meteohub,2013-04-21 15:32:00,
2013-04-21 10:37:00,38.7,27.1,30.53,ESE,119,8.0,18.0,63,0.00,,,0.00,meteohub,2013-04-21 15:37:00,
2013-04-21 10:42:00,38.7,27.1,30.53,ESE,104,9.0,13.0,63,0.00,,,0.00,meteohub,2013-04-21 15:42:00,
2013-04-21 10:47:00,38.7,27.9,30.53,ESE,114,9.0,13.0,65,0.00,,,0.00,meteohub,2013-04-21 15:47:00,
2013-04-21 10:52:00,38.5,27.0,30.53,ESE,121,5.0,14.0,63,0.00,,,0.00,meteohub,2013-04-21 15:52:00,
2013-04-21 10:57:00,39.0,27.9,30.53,East,93,9.0,14.0,64,0.00,,,0.00,meteohub,2013-04-21 15:57:00,
2013-04-21 11:02:00,39.7,28.6,30.53,SE,136,8.0,14.0,64,0.00,,,0.00,meteohub,2013-04-21 16:02:00,
2013-04-21 11:07:00,40.3,27.9,30.53,SE,131,10.0,15.0,61,0.00,,,0.00,meteohub,2013-04-21 16:07:00,
2013-04-21 11:12:00,40.1,28.6,30.53,SE,140,6.0,15.0,63,0.00,,,0.00,meteohub,2013-04-21 16:12:00,
2013-04-21 11:17:00,39.7,27.0,30.52,South,170,8.0,16.0,60,0.00,,,0.00,meteohub,2013-04-21 16:17:00,
2013-04-21 11:22:00,39.6,26.8,30.52,SSE,152,6.0,16.0,60,0.00,,,0.00,meteohub,2013-04-21 16:22:00,
2013-04-21 11:27:00,39.6,27.7,30.52,SE,135,8.0,18.0,62,0.00,,,0.00,meteohub,2013-04-21 16:27:00,
2013-04-21 11:32:00,39.4,27.5,30.51,SSE,155,7.0,20.0,62,0.00,,,0.00,meteohub,2013-04-21 16:32:00,
2013-04-21 11:37:00,39.9,28.4,30.51,SSE,151,7.0,20.0,63,0.00,,,0.00,meteohub,2013-04-21 16:37:00,
2013-04-21 11:42:00,40.6,29.8,30.51,SSE,150,9.0,18.0,65,0.00,,,0.00,meteohub,2013-04-21 16:42:00,
2013-04-21 11:47:00,40.3,29.8,30.50,SE,146,12.0,18.0,66,0.00,,,0.00,meteohub,2013-04-21 16:47:00,
2013-04-21 11:52:00,39.6,29.1,30.50,South,175,8.0,14.0,66,0.00,,,0.00,meteohub,2013-04-21 16:52:00,
2013-04-21 11:57:00,39.2,29.5,30.50,SSE,148,8.0,14.0,68,0.00,,,0.00,meteohub,2013-04-21 16:57:00,
2013-04-21 12:02:00,39.4,30.0,30.49,SSE,159,8.0,14.0,69,0.00,,,0.00,meteohub,2013-04-21 17:02:00,
2013-04-21 12:07:00,39.0,29.3,30.49,SSE,148,14.0,16.0,68,0.00,,,0.00,meteohub,2013-04-21 17:07:00,
2013-04-21 12:12:00,38.7,29.3,30.49,SSE,147,7.0,16.0,69,0.00,,,0.00,meteohub,2013-04-21 17:12:00,
2013-04-21 12:17:00,38.1,29.5,30.49,South,178,7.0,15.0,71,0.00,,,0.00,meteohub,2013-04-21 17:17:00,
2013-04-21 12:22:00,37.0,29.8,30.49,SSE,165,7.0,15.0,75,0.00,,,0.00,meteohub,2013-04-21 17:22:00,
2013-04-21 12:27:00,36.1,30.2,30.48,SE,125,11.0,13.0,79,0.00,,,0.00,meteohub,2013-04-21 17:27:00,
2013-04-21 12:32:00,35.8,30.7,30.48,SE,125,6.0,16.0,82,0.00,,,0.00,meteohub,2013-04-21 17:32:00,
2013-04-21 12:37:00,36.0,30.7,30.48,SE,131,10.0,16.0,81,0.00,,,0.00,meteohub,2013-04-21 17:37:00,
2013-04-21 12:42:00,36.1,30.6,30.47,ESE,107,8.0,16.0,80,0.00,,,0.00,meteohub,2013-04-21 17:42:00,
2013-04-21 12:47:00,36.9,30.9,30.47,East,98,9.0,15.0,79,0.00,,,0.00,meteohub,2013-04-21 17:47:00,
2013-04-21 12:52:00,37.6,31.1,30.46,East,95,8.0,13.0,77,0.00,,,0.00,meteohub,2013-04-21 17:52:00,
2013-04-21 12:57:00,38.3,31.1,30.46,ESE,113,8.0,14.0,75,0.00,,,0.00,meteohub,2013-04-21 17:57:00,
2013-04-21 13:02:00,39.7,32.5,30.46,ESE,121,8.0,14.0,75,0.00,,,0.00,meteohub,2013-04-21 18:02:00,
2013-04-21 13:07:00,40.5,31.5,30.45,ESE,115,8.0,14.0,70,0.00,,,0.00,meteohub,2013-04-21 18:07:00,
2013-04-21 13:12:00,40.8,31.1,30.45,SE,134,9.0,14.0,68,0.00,,,0.00,meteohub,2013-04-21 18:12:00,
2013-04-21 13:17:00,40.6,30.2,30.45,SE,126,9.0,14.0,66,0.00,,,0.00,meteohub,2013-04-21 18:17:00,
2013-04-21 13:22:00,41.2,30.7,30.44,ESE,113,16.0,16.0,66,0.00,,,0.00,meteohub,2013-04-21 18:22:00,
2013-04-21 13:27:00,41.2,28.8,30.44,East,98,10.0,18.0,61,0.00,,,0.00,meteohub,2013-04-21 18:27:00,
2013-04-21 13:32:00,41.5,29.5,30.44,ESE,109,17.0,18.0,62,0.00,,,0.00,meteohub,2013-04-21 18:32:00,
2013-04-21 13:37:00,41.7,29.3,30.43,SE,134,9.0,18.0,61,0.00,,,0.00,meteohub,2013-04-21 18:37:00,
2013-04-21 13:42:00,42.1,28.8,30.43,ESE,109,10.0,18.0,59,0.00,,,0.00,meteohub,2013-04-21 18:42:00,
2013-04-21 13:47:00,42.4,30.4,30.43,ESE,111,12.0,20.0,62,0.00,,,0.00,meteohub,2013-04-21 18:47:00,
2013-04-21 13:52:00,42.8,29.5,30.42,ESE,113,16.0,20.0,59,0.00,,,0.00,meteohub,2013-04-21 18:52:00,
2013-04-21 13:57:00,43.2,30.2,30.42,ESE,114,11.0,20.0,60,0.00,,,0.00,meteohub,2013-04-21 18:57:00,
2013-04-21 14:02:00,43.9,30.6,30.42,SE,127,6.0,18.0,59,0.00,,,0.00,meteohub,2013-04-21 19:02:00,
2013-04-21 14:07:00,43.7,29.8,30.41,SE,128,10.0,18.0,58,0.00,,,0.00,meteohub,2013-04-21 19:07:00,
2013-04-21 14:12:00,44.2,29.5,30.41,ESE,117,11.0,19.0,56,0.00,,,0.00,meteohub,2013-04-21 19:12:00,
2013-04-21 14:17:00,44.8,30.9,30.40,ESE,106,12.0,19.0,58,0.00,,,0.00,meteohub,2013-04-21 19:17:00,
2013-04-21 14:22:00,45.0,30.6,30.40,ESE,110,12.0,19.0,57,0.00,,,0.00,meteohub,2013-04-21 19:22:00,
2013-04-21 14:27:00,44.8,29.7,30.40,ESE,107,10.0,19.0,55,0.00,,,0.00,meteohub,2013-04-21 19:27:00,
2013-04-21 14:32:00,45.1,30.4,30.41,SE,130,13.0,22.0,56,0.00,,,0.00,meteohub,2013-04-21 19:32:00,
2013-04-21 14:37:00,45.3,30.0,30.40,SE,136,12.0,22.0,55,0.00,,,0.00,meteohub,2013-04-21 19:37:00,
2013-04-21 14:42:00,45.7,30.4,30.40,SE,128,13.0,22.0,55,0.00,,,0.00,meteohub,2013-04-21 19:42:00,
2013-04-21 14:47:00,45.3,30.6,30.40,SE,134,11.0,19.0,56,0.00,,,0.00,meteohub,2013-04-21 19:47:00,
2013-04-21 14:52:00,45.7,32.2,30.40,SSE,159,14.0,17.0,59,0.00,,,0.00,meteohub,2013-04-21 19:52:00,
2013-04-21 14:57:00,45.9,30.6,30.40,SE,130,9.0,17.0,55,0.00,,,0.00,meteohub,2013-04-21 19:57:00,
2013-04-21 15:02:00,45.5,30.7,30.39,SSE,148,13.0,17.0,56,0.00,,,0.00,meteohub,2013-04-21 20:02:00,
2013-04-21 15:07:00,45.5,30.7,30.39,SE,128,10.0,18.0,56,0.00,,,0.00,meteohub,2013-04-21 20:07:00,
2013-04-21 15:12:00,45.3,29.7,30.38,SE,133,17.0,18.0,54,0.00,,,0.00,meteohub,2013-04-21 20:12:00,
2013-04-21 15:17:00,45.9,30.2,30.38,SE,127,11.0,18.0,54,0.00,,,0.00,meteohub,2013-04-21 20:17:00,
2013-04-21 15:22:00,46.8,30.9,30.38,SE,144,9.0,18.0,54,0.00,,,0.00,meteohub,2013-04-21 20:22:00,
2013-04-21 15:27:00,46.8,30.6,30.38,SE,140,15.0,21.0,53,0.00,,,0.00,meteohub,2013-04-21 20:27:00,
2013-04-21 15:32:00,46.6,28.9,30.38,SSE,162,6.0,21.0,50,0.00,,,0.00,meteohub,2013-04-21 20:32:00,
2013-04-21 15:37:00,46.8,30.0,30.37,SE,143,14.0,21.0,52,0.00,,,0.00,meteohub,2013-04-21 20:37:00,
2013-04-21 15:42:00,46.2,30.9,30.37,SE,129,13.0,21.0,55,0.00,,,0.00,meteohub,2013-04-21 20:42:00,
2013-04-21 15:47:00,46.9,31.6,30.37,SE,126,12.0,21.0,55,0.00,,,0.00,meteohub,2013-04-21 20:47:00,
2013-04-21 15:52:00,46.6,30.4,30.37,ESE,123,14.0,19.0,53,0.00,,,0.00,meteohub,2013-04-21 20:52:00,
2013-04-21 15:57:00,46.2,29.1,30.37,ESE,123,10.0,19.0,51,0.00,,,0.00,meteohub,2013-04-21 20:57:00,
2013-04-21 16:02:00,46.8,31.5,30.37,SE,131,8.0,19.0,55,0.00,,,0.00,meteohub,2013-04-21 21:02:00,
2013-04-21 16:07:00,47.1,32.7,30.36,SE,135,11.0,19.0,57,0.00,,,0.00,meteohub,2013-04-21 21:07:00,
2013-04-21 16:12:00,46.9,31.1,30.36,SE,138,13.0,16.0,54,0.00,,,0.00,meteohub,2013-04-21 21:12:00,
2013-04-21 16:17:00,47.1,31.3,30.36,ESE,111,10.0,18.0,54,0.00,,,0.00,meteohub,2013-04-21 21:17:00,
2013-04-21 16:22:00,47.5,32.2,30.35,SE,146,10.0,19.0,55,0.00,,,0.00,meteohub,2013-04-21 21:22:00,
2013-04-21 16:27:00,47.1,31.8,30.35,SE,126,11.0,19.0,55,0.00,,,0.00,meteohub,2013-04-21 21:27:00,
2013-04-21 16:32:00,46.9,31.6,30.35,ESE,120,14.0,19.0,55,0.00,,,0.00,meteohub,2013-04-21 21:32:00,
2013-04-21 16:37:00,47.1,32.2,30.35,SE,133,7.0,20.0,56,0.00,,,0.00,meteohub,2013-04-21 21:37:00,
2013-04-21 16:42:00,47.3,32.0,30.35,SE,139,10.0,20.0,55,0.00,,,0.00,meteohub,2013-04-21 21:42:00,
2013-04-21 16:47:00,47.3,32.4,30.35,SE,134,11.0,20.0,56,0.00,,,0.00,meteohub,2013-04-21 21:47:00,
2013-04-21 16:52:00,47.5,32.5,30.35,SE,144,11.0,19.0,56,0.00,,,0.00,meteohub,2013-04-21 21:52:00,
2013-04-21 16:57:00,47.3,32.4,30.34,SE,134,9.0,19.0,56,0.00,,,0.00,meteohub,2013-04-21 21:57:00,
2013-04-21 17:02:00,46.9,31.1,30.35,SE,136,17.0,19.0,54,0.00,,,0.00,meteohub,2013-04-21 22:02:00,
2013-04-21 17:07:00,47.1,31.8,30.35,SE,130,11.0,19.0,55,0.00,,,0.00,meteohub,2013-04-21 22:07:00,
2013-04-21 17:12:00,47.5,32.2,30.34,SE,133,9.0,19.0,55,0.00,,,0.00,meteohub,2013-04-21 22:12:00,
2013-04-21 17:17:00,47.5,31.6,30.34,SE,143,15.0,17.0,54,0.00,,,0.00,meteohub,2013-04-21 22:17:00,
2013-04-21 17:22:00,47.5,32.5,30.34,SE,134,11.0,19.0,56,0.00,,,0.00,meteohub,2013-04-21 22:22:00,
2013-04-21 17:27:00,47.7,32.7,30.33,SE,139,8.0,19.0,56,0.00,,,0.00,meteohub,2013-04-21 22:27:00,
2013-04-21 17:32:00,47.8,33.3,30.33,ESE,122,10.0,19.0,57,0.00,,,0.00,meteohub,2013-04-21 22:32:00,
2013-04-21 17:37:00,47.7,33.3,30.33,SE,138,10.0,18.0,57,0.00,,,0.00,meteohub,2013-04-21 22:37:00,
2013-04-21 17:42:00,47.7,33.3,30.33,SE,130,11.0,19.0,57,0.00,,,0.00,meteohub,2013-04-21 22:42:00,
2013-04-21 17:47:00,47.5,32.5,30.32,SSE,153,12.0,19.0,56,0.00,,,0.00,meteohub,2013-04-21 22:47:00,
2013-04-21 17:52:00,47.1,32.2,30.32,SE,136,8.0,18.0,56,0.00,,,0.00,meteohub,2013-04-21 22:52:00,
2013-04-21 17:57:00,46.6,33.1,30.32,ESE,121,13.0,18.0,59,0.00,,,0.00,meteohub,2013-04-21 22:57:00,
2013-04-21 18:02:00,46.0,31.6,30.32,SE,133,9.0,18.0,57,0.00,,,0.00,meteohub,2013-04-21 23:02:00,
2013-04-21 18:07:00,46.0,32.9,30.32,ESE,117,11.0,18.0,60,0.00,,,0.00,meteohub,2013-04-21 23:07:00,
2013-04-21 18:12:00,45.7,31.8,30.32,SE,127,10.0,15.0,58,0.00,,,0.00,meteohub,2013-04-21 23:12:00,
2013-04-21 18:17:00,45.7,32.2,30.31,SE,126,10.0,17.0,59,0.00,,,0.00,meteohub,2013-04-21 23:17:00,
2013-04-21 18:22:00,45.9,32.4,30.31,SE,138,10.0,17.0,59,0.00,,,0.00,meteohub,2013-04-21 23:22:00,
2013-04-21 18:27:00,46.0,32.9,30.31,SE,141,4.0,17.0,60,0.00,,,0.00,meteohub,2013-04-21 23:27:00,
2013-04-21 18:32:00,46.2,33.1,30.31,SE,127,11.0,16.0,60,0.00,,,0.00,meteohub,2013-04-21 23:32:00,
2013-04-21 18:37:00,45.9,32.7,30.31,SE,126,11.0,16.0,60,0.00,,,0.00,meteohub,2013-04-21 23:37:00,
2013-04-21 18:42:00,45.7,32.5,30.31,SE,126,8.0,16.0,60,0.00,,,0.00,meteohub,2013-04-21 23:42:00,
2013-04-21 18:47:00,45.3,33.4,30.31,SE,132,9.0,16.0,63,0.00,,,0.00,meteohub,2013-04-21 23:47:00,
2013-04-21 18:52:00,45.1,32.0,30.30,SE,143,14.0,16.0,60,0.00,,,0.00,meteohub,2013-04-21 23:52:00,
2013-04-21 18:57:00,45.1,31.6,30.30,ESE,117,12.0,16.0,59,0.00,,,0.00,meteohub,2013-04-21 23:57:00,
2013-04-21 19:02:00,45.0,31.5,30.30,SE,132,11.0,18.0,59,0.00,,,0.00,meteohub,2013-04-22 00:02:00,
2013-04-21 19:07:00,44.8,31.3,30.30,SSE,147,11.0,18.0,59,0.00,,,0.00,meteohub,2013-04-22 00:07:00,
2013-04-21 19:12:00,44.6,31.6,30.30,SSE,157,8.0,17.0,60,0.00,,,0.00,meteohub,2013-04-22 00:12:00,
2013-04-21 19:17:00,44.6,31.6,30.30,SE,136,9.0,17.0,60,0.00,,,0.00,meteohub,2013-04-22 00:17:00,
2013-04-21 19:22:00,44.2,31.6,30.30,SE,140,9.0,15.0,61,0.00,,,0.00,meteohub,2013-04-22 00:22:00,
2013-04-21 19:27:00,44.1,31.1,30.30,SE,130,10.0,15.0,60,0.00,,,0.00,meteohub,2013-04-22 00:27:00,
2013-04-21 19:32:00,43.9,31.3,30.30,SE,142,7.0,15.0,61,0.00,,,0.00,meteohub,2013-04-22 00:32:00,
2013-04-21 19:37:00,43.7,31.1,30.30,SSE,154,6.0,15.0,61,0.00,,,0.00,meteohub,2013-04-22 00:37:00,
2013-04-21 19:42:00,43.3,31.3,30.30,SSE,155,7.0,14.0,62,0.00,,,0.00,meteohub,2013-04-22 00:42:00,
2013-04-21 19:47:00,43.2,31.5,30.30,SSE,148,3.0,12.0,63,0.00,,,0.00,meteohub,2013-04-22 00:47:00,
2013-04-21 19:52:00,43.0,31.6,30.30,SE,137,7.0,12.0,64,0.00,,,0.00,meteohub,2013-04-22 00:52:00,
2013-04-21 19:57:00,42.6,31.3,30.30,SE,139,9.0,12.0,64,0.00,,,0.00,meteohub,2013-04-22 00:57:00,
2013-04-21 20:02:00,42.6,31.6,30.30,SE,136,7.0,15.0,65,0.00,,,0.00,meteohub,2013-04-22 01:02:00,
2013-04-21 20:07:00,42.4,31.1,30.30,SE,139,6.0,15.0,64,0.00,,,0.00,meteohub,2013-04-22 01:07:00,
2013-04-21 20:12:00,42.4,30.7,30.30,SE,146,5.0,13.0,63,0.00,,,0.00,meteohub,2013-04-22 01:12:00,
2013-04-21 20:17:00,42.4,30.7,30.30,SE,135,7.0,10.0,63,0.00,,,0.00,meteohub,2013-04-22 01:17:00,
2013-04-21 20:22:00,42.3,30.6,30.30,SSE,159,3.0,11.0,63,0.00,,,0.00,meteohub,2013-04-22 01:22:00,
2013-04-21 20:27:00,42.4,30.4,30.30,South,177,5.0,11.0,62,0.00,,,0.00,meteohub,2013-04-22 01:27:00,
2013-04-21 20:32:00,42.4,30.4,30.30,SE,142,6.0,10.0,62,0.00,,,0.00,meteohub,2013-04-22 01:32:00,
2013-04-21 20:37:00,42.4,30.0,30.30,SSE,147,7.0,10.0,61,0.00,,,0.00,meteohub,2013-04-22 01:37:00,
2013-04-21 20:42:00,42.6,30.2,30.30,SE,139,8.0,16.0,61,0.00,,,0.00,meteohub,2013-04-22 01:42:00,
2013-04-21 20:47:00,42.4,30.0,30.30,SE,146,7.0,17.0,61,0.00,,,0.00,meteohub,2013-04-22 01:47:00,
2013-04-21 20:52:00,42.6,30.2,30.30,SE,146,11.0,17.0,61,0.00,,,0.00,meteohub,2013-04-22 01:52:00,
2013-04-21 20:57:00,42.6,30.6,30.30,SSE,157,7.0,17.0,62,0.00,,,0.00,meteohub,2013-04-22 01:57:00,
2013-04-21 21:02:00,42.6,30.2,30.30,SSE,153,8.0,17.0,61,0.00,,,0.00,meteohub,2013-04-22 02:02:00,
2013-04-21 21:07:00,42.4,30.4,30.30,SSE,155,9.0,18.0,62,0.00,,,0.00,meteohub,2013-04-22 02:07:00,
2013-04-21 21:12:00,42.6,29.7,30.30,SE,141,10.0,18.0,60,0.00,,,0.00,meteohub,2013-04-22 02:12:00,
2013-04-21 21:17:00,42.6,30.2,30.30,SE,140,11.0,22.0,61,0.00,,,0.00,meteohub,2013-04-22 02:17:00,
2013-04-21 21:22:00,42.6,30.6,30.30,SE,140,14.0,22.0,62,0.00,,,0.00,meteohub,2013-04-22 02:22:00,
2013-04-21 21:27:00,42.6,30.6,30.30,SSE,157,10.0,18.0,62,0.00,,,0.00,meteohub,2013-04-22 02:27:00,
2013-04-21 21:32:00,42.6,30.2,30.30,SE,138,5.0,16.0,61,0.00,,,0.00,meteohub,2013-04-22 02:32:00,
2013-04-21 21:37:00,42.6,30.2,30.30,SSE,149,8.0,14.0,61,0.00,,,0.00,meteohub,2013-04-22 02:37:00,
2013-04-21 21:42:00,42.6,30.6,30.30,SE,143,8.0,13.0,62,0.00,,,0.00,meteohub,2013-04-22 02:42:00,
2013-04-21 21:47:00,42.4,30.7,30.30,SSE,156,9.0,14.0,63,0.00,,,0.00,meteohub,2013-04-22 02:47:00,
2013-04-21 21:52:00,42.4,30.7,30.30,SSE,151,6.0,14.0,63,0.00,,,0.00,meteohub,2013-04-22 02:52:00,
2013-04-21 21:57:00,42.4,30.7,30.30,SSE,154,4.0,12.0,63,0.00,,,0.00,meteohub,2013-04-22 02:57:00,
2013-04-21 22:02:00,42.4,30.7,30.30,SSE,151,5.0,14.0,63,0.00,,,0.00,meteohub,2013-04-22 03:02:00,
2013-04-21 22:07:00,42.3,30.6,30.30,SSE,159,4.0,16.0,63,0.00,,,0.00,meteohub,2013-04-22 03:07:00,
2013-04-21 22:12:00,42.4,30.7,30.29,SE,138,8.0,16.0,63,0.00,,,0.00,meteohub,2013-04-22 03:12:00,
2013-04-21 22:17:00,42.4,31.1,30.29,SSE,165,7.0,16.0,64,0.00,,,0.00,meteohub,2013-04-22 03:17:00,
2013-04-21 22:22:00,42.4,31.1,30.29,SSE,161,8.0,16.0,64,0.00,,,0.00,meteohub,2013-04-22 03:22:00,
2013-04-21 22:27:00,42.4,31.5,30.29,SSE,161,6.0,16.0,65,0.00,,,0.00,meteohub,2013-04-22 03:27:00,
2013-04-21 22:32:00,42.6,31.6,30.29,SE,138,3.0,13.0,65,0.00,,,0.00,meteohub,2013-04-22 03:32:00,
2013-04-21 22:37:00,42.6,31.6,30.29,SSE,160,6.0,13.0,65,0.00,,,0.00,meteohub,2013-04-22 03:37:00,
2013-04-21 22:42:00,42.8,31.8,30.30,SSE,163,6.0,17.0,65,0.00,,,0.00,meteohub,2013-04-22 03:42:00,
2013-04-21 22:47:00,43.0,31.6,30.30,SSE,165,6.0,17.0,64,0.00,,,0.00,meteohub,2013-04-22 03:47:00,
2013-04-21 22:52:00,43.0,32.0,30.30,South,171,8.0,17.0,65,0.00,,,0.00,meteohub,2013-04-22 03:52:00,
2013-04-21 22:57:00,43.0,32.0,30.30,South,182,10.0,14.0,65,0.00,,,0.00,meteohub,2013-04-22 03:57:00,
2013-04-21 23:01:00,42.8,31.8,30.30,South,171,7.0,12.0,65,0.00,,,0.00,meteohub,2013-04-22 04:01:00,
2013-04-21 23:02:00,42.8,32.2,30.30,SSE,163,6.0,12.0,66,0.00,,,0.00,meteohub,2013-04-22 04:02:00,
2013-04-21 23:04:00,42.6,32.0,30.30,SSE,167,7.0,12.0,66,0.00,,,0.00,meteohub,2013-04-22 04:04:00,
2013-04-21 23:10:00,42.6,32.0,30.30,South,185,9.0,12.0,66,0.00,,,0.00,meteohub,2013-04-22 04:10:00,
2013-04-21 23:15:00,42.6,32.4,30.30,South,175,10.0,14.0,67,0.00,,,0.00,meteohub,2013-04-22 04:15:00,
2013-04-21 23:20:00,42.6,32.4,30.30,SSE,168,7.0,16.0,67,0.00,,,0.00,meteohub,2013-04-22 04:20:00,
2013-04-21 23:25:00,42.6,32.4,30.30,SSE,163,9.0,16.0,67,0.00,,,0.00,meteohub,2013-04-22 04:25:00,
2013-04-21 23:30:00,42.8,32.2,30.30,SSE,150,8.0,16.0,66,0.00,,,0.00,meteohub,2013-04-22 04:30:00,
2013-04-21 23:35:00,43.0,32.7,30.30,SSE,161,6.0,18.0,67,0.00,,,0.00,meteohub,2013-04-22 04:35:00,
2013-04-21 23:41:00,43.0,32.7,30.29,South,171,13.0,18.0,67,0.00,,,0.00,meteohub,2013-04-22 04:41:00,
2013-04-21 23:46:00,43.0,32.7,30.29,SSE,161,7.0,17.0,67,0.00,,,0.00,meteohub,2013-04-22 04:46:00,
2013-04-21 23:51:00,43.0,32.7,30.29,SSE,162,8.0,17.0,67,0.00,,,0.00,meteohub,2013-04-22 04:51:00,
2013-04-21 23:56:00,43.0,33.1,30.29,South,175,9.0,17.0,68,0.00,,,0.00,meteohub,2013-04-22 04:56:00,